Regional Weather Roundup
Issued by NWS

Home | Current Version | Previous Version | Text Only | Print | Product List | Glossary Off
Versions: 1 2 3 4 5 6 7 8 9 10 11 12 13 14 15 16 17 18 19 20 21 22 23 24 25 26 27 28 29 30 31 32 33 34 35 36 37 38 39 40 41 42 43 44 45 46 47 48 49 50

769
ASUS43 KBIS 302202
RWRND

NORTH DAKOTA REGIONAL WEATHER ROUNDUP
NATIONAL WEATHER SERVICE BISMARCK ND
500 PM CDT MON MAY 30 2016

NOTE: "FAIR" INDICATES FEW OR NO CLOUDS BELOW 12,000 FEET WITH NO
SIGNIFICANT WEATHER AND/OR OBSTRUCTIONS TO VISIBILITY.


NDZ001>003-009>011-017-302300-
NORTHWEST NORTH DAKOTA

CITY           SKY/WX    TMP DP  RH WIND       PRES   REMARKS
WILLISTON      LGT RAIN  59  52  77 N9        29.91F
MINOT          LGT RAIN  62  55  77 SW10      29.87S
MINOT AFB      DRIZZLE   62  53  72 W10       29.86R
$$

NDZ018>021-031>035-040>046-302300-
SOUTHWEST NORTH DAKOTA

CITY           SKY/WX    TMP DP  RH WIND       PRES   REMARKS
BISMARCK       CLOUDY    69  54  58 N23G29    29.80R
DICKINSON      CLOUDY    56  53  90 N9        29.85R
GARRISON         N/A     57  53  86 NW16      29.86F
HETTINGER ARPT CLOUDY    56  53  90 N8        29.84F
$$

NDZ004>008-012>016-024-026-027-054-302300-
NORTHEAST NORTH DAKOTA

CITY           SKY/WX    TMP DP  RH WIND       PRES   REMARKS
GRAND FORKS    TSTM      63  53  70 N17       29.84S
GRND FRKS AFB  LGT RAIN  63  56  78 E13       29.84F
DEVILS LAKE    LGT RAIN  63  55  75 VRB6      29.85F
$$

NDZ022-023-025-028>030-036>039-047>053-302300-
SOUTHEAST NORTH DAKOTA

CITY           SKY/WX    TMP DP  RH WIND       PRES   REMARKS
FARGO          CLOUDY    86  46  24 SE21G26   29.78F
JAMESTOWN      TSTM      68  55  63 SE5G25    29.77F VSB 1
$$





USA.gov is the U.S. government's official web portal to all federal, state and local government web resources and services.